GW4697 Weather Reports


time (UTC)temp
C
wind
direction
speed
KPH
gust
KPH
rain 1hr
cm
rain 24hr
cm
rain mn
cm
humidity
%
barometer
mb
20260506070143 10 29 4.8 6.4 0.00 0.00 0.00 98 1011.4
20260506062120 9 129 0.0 0.0 0.00 0.00 0.00 97 1011.5
20260506061616 9 113 0.0 1.6 0.00 0.00 0.00 97 1011.6
20260506061114 10 85 0.0 0.0 0.00 0.00 0.00 97 1011.4
20260506060612 10 81 0.0 0.0 0.00 0.00 0.00 97 1011.7
20260506060108 10 78 0.0 1.6 0.00 0.00 0.00 97 1011.4
20260506051035 11 46 1.6 1.6 0.00 0.00 0.00 96 1011.3
20260506050533 10 26 3.2 4.8 0.00 0.00 0.00 96 1011.3
20260506045023 10 62 1.6 1.6 0.00 0.00 0.00 96 1011.6
20260506044521 10 72 0.0 1.6 0.00 0.00 0.00 96 1011.8
20260506044018 11 73 1.6 1.6 0.00 0.00 0.00 96 1011.7
20260506043515 11 60 1.6 1.6 0.00 0.00 0.00 96 1011.8
20260506043013 11 44 3.2 3.2 0.00 0.00 0.00 96 1011.7
20260506042512 11 52 3.2 3.2 0.00 0.00 0.00 95 1011.7
20260506042010 11 61 3.2 4.8 0.00 0.00 0.00 95 1011.9
20260506041508 11 29 4.8 6.4 0.00 0.00 0.00 95 1011.9
20260506041005 11 53 3.2 3.2 0.00 0.00 0.00 95 1011.8
20260506040503 11 66 3.2 3.2 0.00 0.00 0.00 95 1012.0
20260506035958 11 352 3.2 3.2 0.00 0.00 0.00 95 1011.8
20260506035455 11 63 1.6 3.2 0.00 0.00 0.00 95 1011.9
20260506034951 11 35 1.6 3.2 0.00 0.00 0.00 95 1011.8
20260506034449 11 358 6.4 6.4 0.00 0.00 0.00 95 1012.0
20260506033946 11 36 3.2 4.8 0.00 0.00 0.00 95 1012.0
20260506033444 11 36 6.4 6.4 0.00 0.00 0.00 95 1012.0
20260506032940 11 5 6.4 6.4 0.00 0.00 0.00 94 1012.1
20260506032437 11 14 4.8 6.4 0.00 0.00 0.00 94 1012.3
20260506031934 11 13 12.9 16.1 0.00 0.00 0.00 94 1012.2
20260506031431 11 10 6.4 11.3 0.00 0.00 0.00 94 1012.4
20260506030929 12 332 8.0 11.3 0.00 0.00 0.00 94 1012.3
20260506030427 12 350 8.0 9.7 0.00 0.00 0.00 94 1012.5
20260506025923 12 63 4.8 6.4 0.00 0.00 0.00 94 1012.5
20260506025420 12 65 3.2 3.2 0.00 0.00 0.00 94 1012.7
20260506024917 12 321 6.4 9.7 0.00 0.00 0.00 94 1012.5
20260506024414 12 47 4.8 4.8 0.00 0.00 0.00 94 1012.6
20260506023910 12 1 6.4 9.7 0.00 0.00 0.00 93 1012.7
20260506023407 12 334 8.0 11.3 0.00 0.00 0.00 94 1012.6
20260506022903 12 356 12.9 14.5 0.00 0.00 0.00 94 1012.6
20260506022401 12 35 6.4 9.7 0.00 0.00 0.00 94 1012.6
20260506021859 12 346 6.4 6.4 0.00 0.00 0.00 94 1012.4
20260506021356 12 25 8.0 9.7 0.00 0.00 0.00 94 1012.3
20260506020852 12 14 9.7 11.3 0.00 0.00 0.00 94 1012.5
20260506020351 12 311 6.4 9.7 0.00 0.00 0.00 94 1012.7
20260506015848 12 19 9.7 11.3 0.00 0.00 0.00 94 1012.7
20260506015345 12 33 8.0 12.9 0.00 0.00 0.00 94 1012.7
20260506014842 12 6 8.0 9.7 0.00 0.00 0.00 94 1012.6
20260506014339 12 26 6.4 6.4 0.00 0.00 0.00 94 1012.7
20260506013835 12 21 8.0 11.3 0.00 0.00 0.00 93 1012.7
20260506013333 12 342 8.0 12.9 0.00 0.00 0.00 93 1012.6
20260506012829 12 19 12.9 16.1 0.00 0.00 0.00 93 1012.6
20260506012326 12 33 8.0 9.7 0.00 0.00 0.00 93 1012.7
20260506011823 12 35 6.4 6.4 0.00 0.00 0.00 93 1012.8
20260506011320 13 17 11.3 12.9 0.00 0.00 0.00 93 1012.7
20260506010817 13 350 11.3 12.9 0.00 0.00 0.00 92 1012.7
20260506010315 13 21 9.7 12.9 0.00 0.00 0.00 92 1012.7
20260506005812 13 49 6.4 9.7 0.00 0.00 0.00 92 1012.7
20260506005309 13 353 6.4 9.7 0.00 0.00 0.00 92 1012.7
20260506004805 13 333 11.3 12.9 0.00 0.00 0.00 91 1012.8
20260506004303 13 26 9.7 9.7 0.00 0.00 0.00 91 1012.9
20260506003759 13 349 4.8 4.8 0.00 0.00 0.00 92 1012.8
20260506003256 13 49 6.4 9.7 0.00 0.00 0.00 92 1012.6
20260506002751 13 31 4.8 4.8 0.00 0.00 0.00 91 1012.6
20260506002248 13 29 8.0 11.3 0.00 0.00 0.00 91 1012.6
20260506001743 13 352 12.9 17.7 0.00 0.00 0.00 91 1012.5
20260506001241 13 9 8.0 11.3 0.00 0.00 0.00 91 1012.7
20260506000738 13 21 11.3 12.9 0.00 0.00 0.00 92 1012.4
20260506000235 13 24 9.7 11.3 0.00 0.00 0.00 91 1012.6
20260505235732 13 21 9.7 11.3 0.00 0.00 0.00 91 1012.8
20260505235230 13 338 9.7 11.3 0.00 0.00 0.00 91 1012.7
20260505234726 13 37 11.3 11.3 0.00 0.00 0.00 91 1012.6
20260505234224 14 27 12.9 14.5 0.00 0.00 0.00 90 1012.7
20260505233720 14 26 9.7 11.3 0.00 0.00 0.00 90 1012.5
20260505233219 14 23 12.9 16.1 0.00 0.00 0.00 90 1012.5
20260505232715 14 19 9.7 11.3 0.00 0.00 0.00 89 1012.7
20260505232213 14 75 8.0 12.9 0.00 0.00 0.00 88 1012.7
20260505231709 14 29 3.2 4.8 0.00 0.00 0.00 88 1012.7
20260505231209 14 26 6.4 6.4 0.00 0.00 0.00 88 1012.2
20260505230706 14 28 6.4 9.7 0.00 0.00 0.00 88 1012.1
20260505230203 14 1 8.0 9.7 0.00 0.00 0.00 88 1012.1
20260505225659 14 6 6.4 9.7 0.00 0.00 0.00 87 1012.1
20260505225156 14 15 14.5 17.7 0.00 0.00 0.00 87 1011.8
20260505224651 15 349 9.7 14.5 0.00 0.00 0.00 87 1012.0
20260505224149 15 40 6.4 9.7 0.00 0.00 0.00 87 1012.1
20260505223646 15 33 6.4 9.7 0.00 0.00 0.00 87 1012.1
20260505223142 15 0 11.3 14.5 0.00 0.00 0.00 87 1011.9
20260505222638 15 50 4.8 9.7 0.00 0.00 0.00 87 1011.9
20260505222135 15 20 8.0 12.9 0.00 0.00 0.00 87 1011.9
20260505221632 15 28 8.0 9.7 0.00 0.00 0.00 86 1011.9
20260505221129 15 308 8.0 11.3 0.00 0.00 0.00 86 1011.8
20260505220626 15 35 11.3 12.9 0.00 0.00 0.00 86 1011.8
20260505220123 15 9 11.3 14.5 0.00 0.00 0.00 86 1011.9
20260505215621 15 37 8.0 11.3 0.00 0.00 0.00 86 1011.7
20260505215119 15 22 9.7 14.5 0.00 0.00 0.00 86 1011.7
20260505214617 15 11 9.7 12.9 0.00 0.00 0.00 85 1011.7
20260505214114 15 55 3.2 4.8 0.00 0.00 0.00 85 1011.7
20260505213611 15 6 4.8 6.4 0.00 0.00 0.00 84 1011.5
20260505213108 15 3 9.7 12.9 0.00 0.00 0.00 84 1011.4
20260505212604 15 0 6.4 11.3 0.00 0.00 0.00 83 1011.3
20260505212102 15 31 8.0 11.3 0.00 0.00 0.00 82 1011.1
20260505211558 15 20 11.3 16.1 0.00 0.00 0.00 81 1011.4
20260505211056 15 358 8.0 9.7 0.00 0.00 0.00 80 1011.2
20260505210552 16 327 12.9 16.1 0.00 0.00 0.00 80 1011.0
20260505210049 16 349 6.4 6.4 0.00 0.00 0.00 79 1011.0
20260505205547 16 309 9.7 12.9 0.00 0.00 0.00 79 1011.2
20260505205044 16 334 12.9 17.7 0.00 0.00 0.00 78 1011.0
20260505204541 16 336 9.7 14.5 0.00 0.00 0.00 76 1010.8
20260505204039 16 297 6.4 9.7 0.00 0.00 0.00 75 1010.7
20260505203535 16 344 14.5 16.1 0.00 0.00 0.00 75 1011.0
20260505203032 16 25 11.3 16.1 0.00 0.00 0.00 75 1010.9
20260505202528 17 326 8.0 9.7 0.00 0.00 0.00 74 1010.7
20260505202024 17 317 9.7 12.9 0.00 0.00 0.00 73 1010.7
20260505201521 17 321 6.4 9.7 0.00 0.00 0.00 73 1010.4
20260505201019 17 10 9.7 12.9 0.00 0.00 0.00 73 1010.6
20260505200517 17 336 3.2 4.8 0.00 0.00 0.00 73 1010.4
20260505200013 17 357 6.4 11.3 0.00 0.00 0.00 72 1010.4
20260505195509 17 357 6.4 9.7 0.00 0.00 0.00 72 1010.1
20260505195007 18 304 11.3 14.5 0.00 0.00 0.00 72 1010.0
20260505194504 18 329 11.3 12.9 0.00 0.00 0.00 72 1010.1
20260505194004 18 80 4.8 6.4 0.00 0.00 0.00 72 1010.0
20260505193502 18 340 8.0 14.5 0.00 0.00 0.00 72 1010.0
20260505192959 18 28 4.8 9.7 0.00 0.00 0.00 72 1010.1
20260505192458 18 355 12.9 17.7 0.00 0.00 0.00 72 1010.0
20260505191954 18 340 14.5 22.5 0.00 0.00 0.00 72 1009.9
20260505191453 18 44 14.5 17.7 0.00 0.00 0.00 72 1010.0
20260505190950 18 332 11.3 16.1 0.00 0.00 0.00 71 1009.9
20260505190444 18 13 8.0 11.3 0.00 0.00 0.00 71 1009.7
20260505185940 19 333 12.9 16.1 0.00 0.00 0.00 70 1009.7
20260505185438 19 57 4.8 6.4 0.00 0.00 0.00 69 1009.6
20260505184934 19 338 6.4 6.4 0.00 0.00 0.00 68 1009.6
20260505184431 19 105 4.8 6.4 0.00 0.00 0.00 66 1009.6
20260505183928 20 359 6.4 6.4 0.00 0.00 0.00 66 1009.6
20260505183425 20 311 4.8 9.7 0.00 0.00 0.00 65 1009.7
20260505182921 20 299 8.0 11.3 0.00 0.00 0.00 64 1009.4
20260505182418 20 327 8.0 11.3 0.00 0.00 0.00 63 1009.2
20260505181915 20 343 8.0 12.9 0.00 0.00 0.00 63 1009.4
20260505181412 20 353 4.8 6.4 0.00 0.00 0.00 63 1009.2
20260505180909 20 305 9.7 11.3 0.00 0.00 0.00 62 1009.2
20260505180405 20 332 6.4 11.3 0.00 0.00 0.00 61 1009.1
20260505175902 20 319 9.7 12.9 0.00 0.00 0.00 61 1009.3
20260505175358 21 10 12.9 14.5 0.00 0.00 0.00 60 1009.0
20260505174854 21 334 9.7 16.1 0.00 0.00 0.00 60 1009.2
20260505174352 21 285 6.4 11.3 0.00 0.00 0.00 60 1009.1
20260505173848 20 296 8.0 11.3 0.00 0.00 0.00 61 1009.2
20260505173345 20 63 3.2 4.8 0.00 0.00 0.00 68 1009.4
20260505172842 19 79 0.0 1.6 0.00 0.00 0.00 67 1009.4
20260505172340 19 95 1.6 3.2 0.00 0.00 0.00 67 1009.2
20260505171839 19 126 3.2 3.2 0.00 0.00 0.00 66 1009.2
20260505171336 18 119 4.8 4.8 0.00 0.00 0.00 68 1009.2
20260505170833 19 119 3.2 3.2 0.00 0.00 0.00 68 1009.2
20260505170330 18 134 3.2 4.8 0.00 0.00 0.00 66 1009.3
20260505165825 18 132 3.2 3.2 0.00 0.00 0.00 68 1009.4
20260505165321 19 130 3.2 3.2 0.00 0.00 0.00 66 1009.2
20260505164816 19 129 1.6 1.6 0.00 0.00 0.00 65 1009.2
20260505164313 18 129 0.0 0.0 0.00 0.00 0.00 67 1009.4
20260505163812 18 129 3.2 3.2 0.00 0.00 0.00 67 1009.3
20260505163310 18 129 1.6 1.6 0.00 0.00 0.00 66 1009.4
20260505162808 18 129 1.6 1.6 0.00 0.00 0.00 67 1009.3
20260505162306 18 129 1.6 1.6 0.00 0.00 0.00 67 1009.7
20260505161801 18 129 3.2 3.2 0.00 0.00 0.00 68 1009.3
20260505161258 18 128 3.2 3.2 0.00 0.00 0.00 69 1009.2
20260505160756 17 129 1.6 3.2 0.00 0.00 0.00 69 1009.5
20260505160253 17 146 4.8 4.8 0.00 0.00 0.00 69 1009.1
20260505153232 16 125 1.6 1.6 0.00 0.00 0.00 70 1009.6
20260505152729 16 134 3.2 3.2 0.00 0.00 0.00 73 1009.7
20260505152226 16 133 4.8 4.8 0.00 0.00 0.00 71 1009.7
20260505151720 16 128 0.0 0.0 0.00 0.00 0.00 72 1009.7
20260505151218 15 117 0.0 1.6 0.00 0.00 0.00 72 1009.7
20260505150714 15 146 4.8 4.8 0.00 0.00 0.00 76 1009.9
20260505150212 15 131 3.2 4.8 0.00 0.00 0.00 76 1009.7
20260505140644 13 112 3.2 3.2 0.00 0.00 0.00 84 1010.3
20260505140142 13 121 1.6 3.2 0.00 0.00 0.00 82 1010.2
20260505130105 12 78 1.6 1.6 0.00 0.00 0.00 84 1010.4
20260505124555 12 151 3.2 3.2 0.00 0.00 0.00 84 1010.3
20260505124051 12 138 1.6 1.6 0.00 0.00 0.00 85 1010.4
20260505123547 12 73 1.6 1.6 0.00 0.00 0.00 85 1010.4
20260505123044 11 302 3.2 3.2 0.00 0.00 0.00 85 1010.2
20260505122541 12 188 3.2 3.2 0.00 0.00 0.00 85 1010.2
20260505122038 12 122 3.2 3.2 0.00 0.00 0.00 82 1010.4
20260505121534 13 87 0.0 0.0 0.00 0.00 0.00 77 1010.7
20260505121031 13 77 1.6 1.6 0.00 0.00 0.00 77 1010.4
20260505120528 12 67 0.0 0.0 0.00 0.00 0.00 79 1010.4
20260505120023 12 86 0.0 0.0 0.00 0.00 0.00 84 1010.3
20260505115518 11 307 3.2 6.4 0.00 0.00 0.00 87 1010.6
20260505115016 11 16 1.6 3.2 0.00 0.00 0.00 88 1010.1
20260505114513 11 320 1.6 3.2 0.00 0.00 0.00 90 1010.2
20260505114009 11 261 3.2 4.8 0.00 0.00 0.00 90 1010.1
20260505113506 11 22 8.0 9.7 0.00 0.00 0.00 90 1010.7
20260505113001 10 183 9.7 11.3 0.00 0.00 0.00 90 1009.6
20260505112458 11 100 0.0 0.0 0.00 0.00 0.00 90 1010.7
20260505111955 10 116 0.0 0.0 0.00 0.00 0.00 90 1010.4
20260505111450 10 132 1.6 1.6 0.00 0.00 0.00 90 1010.9
20260505110947 10 81 0.0 0.0 0.00 0.00 0.00 90 1011.6
20260505110444 10 92 1.6 1.6 0.00 0.00 0.00 90 1011.2
20260505101915 10 125 0.0 0.0 0.00 0.00 0.00 91 1012.4
20260505101414 10 125 0.0 1.6 0.00 0.00 0.00 91 1012.3
20260505100910 10 105 0.0 0.0 0.00 0.00 0.00 91 1012.3
20260505100407 10 105 0.0 0.0 0.00 0.00 0.00 91 1012.2
20260505095903 10 102 0.0 0.0 0.00 0.00 0.00 90 1012.4
20260505095400 10 102 0.0 0.0 0.00 0.00 0.00 90 1012.0
20260505094856 10 132 0.0 1.6 0.00 0.00 0.00 90 1012.2
20260505094354 10 140 1.6 1.6 0.00 0.00 0.00 90 1012.0
20260505093849 10 125 0.0 0.0 0.00 0.00 0.00 90 1012.0
20260505093347 11 125 0.0 0.0 0.00 0.00 0.00 90 1011.8
20260505092844 11 130 0.0 0.0 0.00 0.00 0.00 91 1011.3
20260505092342 10 130 0.0 0.0 0.00 0.00 0.00 90 1011.2
20260505091839 10 131 0.0 1.6 0.00 0.00 0.00 90 1011.2
20260505091337 11 121 1.6 1.6 0.00 0.00 0.00 91 1011.2
20260505090834 11 112 0.0 0.0 0.00 0.00 0.00 91 1011.2
20260505090333 11 112 0.0 0.0 0.00 0.00 0.00 91 1011.0
20260505085829 11 112 0.0 0.0 0.00 0.00 0.00 91 1011.1
20260505085327 11 112 0.0 0.0 0.00 0.00 0.00 91 1011.0
20260505084825 11 112 0.0 0.0 0.00 0.00 0.00 91 1011.1
20260505084323 11 113 0.0 0.0 0.00 0.00 0.00 90 1011.0
20260505083820 11 112 0.0 0.0 0.00 0.00 0.00 90 1010.7
20260505083317 11 89 0.0 0.0 0.00 0.00 0.00 90 1010.5
20260505082814 11 89 0.0 0.0 0.00 0.00 0.00 90 1010.7
20260505082311 11 95 0.0 0.0 0.00 0.00 0.00 91 1010.8
20260505081807 11 117 0.0 0.0 0.00 0.00 0.00 91 1010.9
20260505081304 11 117 0.0 0.0 0.00 0.00 0.00 91 1010.7
20260505080800 11 117 0.0 0.0 0.00 0.00 0.00 91 1010.9
20260505080256 11 117 0.0 0.0 0.00 0.00 0.00 91 1010.7
20260505075752 11 117 0.0 0.0 0.00 0.00 0.00 91 1010.6
20260505075249 11 117 0.0 0.0 0.00 0.00 0.00 91 1011.1
20260505074746 11 117 0.0 0.0 0.00 0.00 0.00 91 1011.0
20260505074243 11 117 0.0 0.0 0.00 0.00 0.00 91 1011.0
20260505073741 11 117 0.0 0.0 0.00 0.00 0.00 91 1010.9
20260505073238 11 117 0.0 1.6 0.00 0.00 0.00 91 1010.8
20260505072735 11 117 0.0 0.0 0.00 0.00 0.00 91 1010.8
20260505072231 11 117 0.0 0.0 0.00 0.00 0.00 91 1011.0
20260505071727 11 117 0.0 0.0 0.00 0.00 0.00 91 1011.0
20260505071224 11 117 0.0 0.0 0.00 0.00 0.00 91 1011.3
20260505070722 11 117 0.0 0.0 0.00 0.00 0.00 90 1011.4